When you browse on this site, cookies collect data to enhance your experience and personalize the content and advertising you see.
Visit our Privacy Policy to learn more. By continuing to use the site, you agree to this use of cookies and data.
  • In Romania
  • List of Countries
  • For 7 days
  • Water Temperature
  • Satellite Maps
  • Weather Map
  • Weather Widgets
  • user-avatar
    Login

    Hourly Weather Nivicy

    Today, 19 February, Tuesday

    Time Temperature Precipitation Wind Pressure Humidity
    00:00 -10°C° 0 mm 3 mps 747 mmHg 82%
    01:00 -10°C° 0 mm 4 mps 747 mmHg 78%
    02:00 -10°C° 0 mm 5 mps 746 mmHg 76%
    03:00 -8°C° 0 mm 5 mps 745 mmHg 76%
    04:00 -8°C° 0 mm 5 mps 744 mmHg 76%
    05:00 -8°C° 0 mm 5 mps 743 mmHg 76%
    06:00 -8°C° 0 mm 5 mps 742 mmHg 77%
    07:00 -8°C° 0 mm 5 mps 742 mmHg 78%
    08:00 -7°C° 0 mm 4 mps 741 mmHg 80%
    09:00 -6°C° 0 mm 5 mps 741 mmHg 81%
    10:00 -4°C° 0 mm 5 mps 740 mmHg 81%
    11:00 -2°C° 0 mm 5 mps 740 mmHg 82%
    12:00 -2°C° 0 mm 5 mps 740 mmHg 84%
    13:00 -1°C° 0 mm 5 mps 739 mmHg 85%
    14:00 -1°C° 0 mm 5 mps 739 mmHg 87%
    15:00 -1°C° 0 mm 4 mps 739 mmHg 88%
    16:00 -1°C° 0 mm 4 mps 739 mmHg 89%
    17:00 -2°C° 0 mm 4 mps 738 mmHg 89%
    18:00 -2°C° 0 mm 4 mps 738 mmHg 90%
    19:00 -2°C° 0 mm 4 mps 737 mmHg 91%
    20:00 -2°C° 0 mm 4 mps 737 mmHg 91%
    21:00 -2°C° 0 mm 4 mps 736 mmHg 91%
    22:00 -2°C° 0 mm 4 mps 735 mmHg 90%
    23:00 -2°C° 0 mm 4 mps 734 mmHg 89%

    Tomorrow, 20 February, Wednesday

    Time Temperature Precipitation Wind Pressure Humidity
    00:00 -2°C° 0.1 mm 4 mps 734 mmHg 89%
    01:00 -2°C° 0.1 mm 4 mps 733 mmHg 90%
    02:00 -2°C° 0.1 mm 4 mps 732 mmHg 90%
    03:00 -1°C° 0.1 mm 4 mps 732 mmHg 89%
    04:00 -1°C° 0.1 mm 4 mps 731 mmHg 89%
    05:00 -1°C° 0.1 mm 4 mps 730 mmHg 89%
    06:00 -1°C° 0.2 mm 4 mps 730 mmHg 90%
    07:00 -1°C° 0.2 mm 4 mps 730 mmHg 91%
    08:00 -1°C° 0.2 mm 4 mps 730 mmHg 92%
    09:00 0°C° 0 mm 4 mps 730 mmHg 91%
    10:00 0°C° 0 mm 4 mps 730 mmHg 90%
    11:00 0°C° 0 mm 4 mps 730 mmHg 90%
    12:00 0°C° 0.1 mm 4 mps 730 mmHg 90%
    13:00 0°C° 0.1 mm 4 mps 730 mmHg 90%
    14:00 0°C° 0.1 mm 4 mps 730 mmHg 91%
    15:00 0°C° 0.1 mm 4 mps 730 mmHg 91%
    16:00 0°C° 0.1 mm 3 mps 729 mmHg 92%
    17:00 0°C° 0.1 mm 3 mps 729 mmHg 92%
    18:00 0°C° 0.2 mm 3 mps 729 mmHg 92%
    19:00 0°C° 0.2 mm 3 mps 729 mmHg 93%
    20:00 0°C° 0.2 mm 3 mps 729 mmHg 93%
    21:00 0°C° 0.1 mm 3 mps 729 mmHg 93%
    22:00 0°C° 0.1 mm 3 mps 729 mmHg 94%
    23:00 -1°C° 0.1 mm 2 mps 728 mmHg 95%

    Day after tomorrow, 21 February, Thursday

    Time Temperature Precipitation Wind Pressure Humidity
    00:00 -1°C° 0.3 mm 2 mps 728 mmHg 95%
    01:00 -1°C° 0.3 mm 2 mps 729 mmHg 96%
    02:00 -1°C° 0.3 mm 2 mps 729 mmHg 96%
    03:00 -1°C° 0.4 mm 2 mps 729 mmHg 96%
    04:00 -1°C° 0.4 mm 2 mps 729 mmHg 96%
    05:00 -1°C° 0.4 mm 2 mps 729 mmHg 97%
    06:00 -2°C° 0.6 mm 3 mps 730 mmHg 95%
    07:00 -3°C° 0.6 mm 4 mps 731 mmHg 93%
    08:00 -5°C° 0.6 mm 5 mps 731 mmHg 92%
    09:00 -6°C° 0.2 mm 5 mps 732 mmHg 90%
    10:00 -6°C° 0.2 mm 6 mps 733 mmHg 88%
    11:00 -8°C° 0.2 mm 7 mps 734 mmHg 86%
    12:00 -9°C° 0.1 mm 7 mps 735 mmHg 84%
    13:00 -11°C° 0.1 mm 7 mps 736 mmHg 82%
    14:00 -11°C° 0.1 mm 7 mps 737 mmHg 80%
    15:00 -11°C° 0.1 mm 6 mps 739 mmHg 80%
    16:00 -11°C° 0.1 mm 6 mps 740 mmHg 79%
    17:00 -12°C° 0.1 mm 6 mps 741 mmHg 79%
    18:00 -12°C° 0.1 mm 6 mps 742 mmHg 78%
    19:00 -14°C° 0.1 mm 6 mps 743 mmHg 77%
    20:00 -14°C° 0.1 mm 6 mps 744 mmHg 76%
    21:00 -15°C° 0 mm 6 mps 744 mmHg 76%
    22:00 -15°C° 0 mm 6 mps 745 mmHg 76%
    23:00 -15°C° 0 mm 6 mps 745 mmHg 76%

    22 February, Friday

    Time Temperature Precipitation Wind Pressure Humidity
    00:00 -16°C° 0 mm 6 mps 746 mmHg 77%
    01:00 -16°C° 0 mm 6 mps 747 mmHg 77%
    02:00 -16°C° 0 mm 6 mps 747 mmHg 78%
    03:00 -16°C° 0 mm 6 mps 748 mmHg 78%
    04:00 -17°C° 0 mm 6 mps 748 mmHg 79%
    05:00 -17°C° 0 mm 5 mps 749 mmHg 79%
    06:00 -17°C° 0 mm 5 mps 749 mmHg 80%
    07:00 -17°C° 0 mm 5 mps 749 mmHg 80%
    08:00 -17°C° 0 mm 5 mps 750 mmHg 81%
    09:00 -15°C° 0 mm 5 mps 750 mmHg 78%
    10:00 -16°C° 0 mm 6 mps 750 mmHg 75%
    11:00 -15°C° 0 mm 6 mps 750 mmHg 72%
    12:00 -15°C° 0 mm 6 mps 751 mmHg 70%
    13:00 -15°C° 0 mm 6 mps 751 mmHg 68%
    14:00 -14°C° 0 mm 7 mps 751 mmHg 67%
    15:00 -15°C° 0 mm 6 mps 752 mmHg 69%
    16:00 -15°C° 0 mm 6 mps 752 mmHg 71%
    17:00 -16°C° 0 mm 6 mps 753 mmHg 74%
    18:00 -16°C° 0 mm 6 mps 753 mmHg 74%
    19:00 -16°C° 0 mm 6 mps 754 mmHg 75%
    20:00 -15°C° 0 mm 5 mps 754 mmHg 76%
    21:00 -17°C° 0 mm 5 mps 755 mmHg 78%
    22:00 -17°C° 0 mm 5 mps 755 mmHg 80%
    23:00 -17°C° 0 mm 5 mps 755 mmHg 81%

    23 February, Saturday

    Time Temperature Precipitation Wind Pressure Humidity
    00:00 -17°C° 0 mm 5 mps 756 mmHg 83%
    01:00 -16°C° 0 mm 4 mps 756 mmHg 84%
    02:00 -16°C° 0 mm 4 mps 757 mmHg 86%
    03:00 -17°C° 0 mm 4 mps 757 mmHg 87%
    04:00 -17°C° 0 mm 4 mps 757 mmHg 89%
    05:00 -17°C° 0 mm 3 mps 757 mmHg 90%
    06:00 -17°C° 0 mm 3 mps 757 mmHg 90%
    07:00 -17°C° 0 mm 3 mps 757 mmHg 90%
    08:00 -17°C° 0 mm 3 mps 757 mmHg 90%
    09:00 -16°C° 0 mm 3 mps 758 mmHg 87%
    10:00 -14°C° 0 mm 3 mps 758 mmHg 84%
    11:00 -12°C° 0 mm 2 mps 758 mmHg 81%
    12:00 -10°C° 0 mm 2 mps 758 mmHg 80%
    13:00 -10°C° 0 mm 2 mps 758 mmHg 79%
    14:00 -9°C° 0 mm 2 mps 758 mmHg 78%
    15:00 -9°C° 0 mm 2 mps 758 mmHg 82%
    16:00 -9°C° 0 mm 1 mps 758 mmHg 86%
    17:00 -9°C° 0 mm 1 mps 758 mmHg 90%
    18:00 -10°C° 0 mm 1 mps 758 mmHg 90%
    19:00 -10°C° 0 mm 1 mps 758 mmHg 90%
    20:00 -12°C° 0 mm 2 mps 758 mmHg 90%
    21:00 -12°C° 0 mm 2 mps 758 mmHg 89%
    22:00 -10°C° 0 mm 2 mps 758 mmHg 88%
    23:00 -10°C° 0 mm 2 mps 758 mmHg 87%

    24 February, Sunday

    Time Temperature Precipitation Wind Pressure Humidity
    00:00 -10°C° 0 mm 2 mps 758 mmHg 89%
    01:00 -12°C° 0 mm 2 mps 758 mmHg 92%
    02:00 -12°C° 0 mm 2 mps 758 mmHg 94%
    03:00 -12°C° 0 mm 2 mps 757 mmHg 95%
    04:00 -12°C° 0 mm 2 mps 757 mmHg 96%
    05:00 -12°C° 0 mm 2 mps 757 mmHg 96%
    06:00 -12°C° 0 mm 2 mps 757 mmHg 96%
    07:00 -10°C° 0 mm 2 mps 757 mmHg 95%
    08:00 -10°C° 0 mm 2 mps 757 mmHg 95%
    09:00 -8°C° 0 mm 2 mps 757 mmHg 93%
    10:00 -7°C° 0 mm 2 mps 757 mmHg 92%
    11:00 -7°C° 0 mm 3 mps 757 mmHg 90%
    12:00 -7°C° 0 mm 3 mps 757 mmHg 90%
    13:00 -6°C° 0 mm 3 mps 756 mmHg 89%
    14:00 -5°C° 0 mm 3 mps 756 mmHg 89%
    15:00 -5°C° 0 mm 3 mps 756 mmHg 90%
    16:00 -5°C° 0 mm 3 mps 755 mmHg 91%
    17:00 -5°C° 0 mm 3 mps 755 mmHg 92%
    18:00 -4°C° 0.1 mm 3 mps 754 mmHg 93%
    19:00 -4°C° 0.1 mm 3 mps 754 mmHg 93%
    20:00 -4°C° 0.1 mm 4 mps 753 mmHg 93%
    21:00 -4°C° 0.1 mm 4 mps 752 mmHg 93%
    22:00 -4°C° 0.1 mm 4 mps 752 mmHg 93%
    23:00 -3°C° 0.1 mm 4 mps 751 mmHg 93%
    Show more